Wind_Speed
11 10 10 9 10 9 8 9 9 10 10 10 10 11 11 9 9 8 8 8 8 8 7 7 7 7 7 7 7 8 8 9 9 9 9 9 9 8 8 7 6 6 6 6 7 7 6 6 5
11 10 9 9 10 8 8 9 10 10 11 11 11 11 10 9 9 9 8 8 8 8 8 7 7 7 7 7 8 8 9 9 9 9 9 8 8 7 6 6 6 6 6 6 6 6 6 6 5
11 10 9 10 9 8 8 9 10 10 10 10 10 10 10 9 9 8 8 8 8 8 8 7 7 7 7 7 8 8 8 9 9 9 8 7 6 6 5 5 5 5 5 5 5 5 4 5 5
10 10 10 10 9 8 8 9 10 9 9 9 10 9 9 9 8 8 8 8 7 7 7 7 7 7 7 7 7 7 7 8 8 7 7 6 6 6 5 5 5 4 3 3 3 4 4 4 5
11 11 11 9 9 8 8 9 9 9 9 9 10 9 9 8 8 7 7 7 6 6 7 8 7 7 7 7 7 6 7 7 6 7 7 6 6 5 5 5 4 4 3 2 2 3 4 4 5
11 13 11 10 9 9 9 8 9 9 9 9 9 9 9 8 8 7 6 6 6 6 6 6 6 6 6 6 6 6 6 6 6 7 7 6 5 5 5 4 4 3 2 1 1 3 3 4 5
13 12 12 11 10 10 10 9 9 9 8 8 8 8 7 7 7 7 6 5 5 5 5 5 5 5 6 5 6 6 6 6 6 6 6 5 5 4 4 3 2 2 1 1 1 2 3 4 5
13 13 12 11 11 10 10 10 9 9 9 8 8 8 7 7 7 6 6 5 4 4 5 5 5 5 6 6 5 6 6 6 5 5 5 4 4 4 3 3 2 1 0 1 2 2 3 4 5
12 12 11 12 12 11 10 11 10 9 9 8 8 8 7 6 6 6 6 4 4 4 4 5 5 5 5 5 4 4 4 4 4 4 4 4 3 2 2 2 1 1 0 1 2 3 3 4 5
12 11 10 11 11 11 11 11 10 10 9 9 8 8 7 6 7 7 6 5 4 4 4 4 4 4 4 4 4 3 4 3 3 2 3 3 3 2 2 1 0 1 1 1 1 3 4 5 6
10 9 10 10 11 10 10 10 10 10 10 9 9 8 7 7 7 7 6 5 5 4 4 4 4 3 3 3 3 4 4 2 2 2 2 2 2 2 1 1 1 1 1 1 1 2 4 5 6
9 9 9 9 9 10 10 10 10 10 10 9 8 8 8 7 7 7 6 5 5 4 4 3 3 3 3 2 3 3 3 2 1 1 2 2 1 1 0 1 1 1 2 2 2 3 3 5 5
8 8 8 8 8 9 9 9 9 9 8 8 8 8 7 6 6 6 6 5 5 4 4 3 3 3 2 2 2 2 2 1 0 1 1 1 1 1 1 1 2 2 2 2 3 3 3 4 5
7 7 7 7 7 7 7 7 7 7 7 7 7 7 6 6 6 5 5 4 4 4 3 3 3 3 2 1 1 1 1 1 1 2 3 3 3 3 3 2 2 3 3 3 3 3 3 3 5
6 6 5 5 6 6 6 6 6 6 6 6 6 6 6 6 5 5 4 4 4 4 4 4 4 3 3 2 2 2 2 2 2 2 3 4 4 4 4 3 3 4 4 3 3 3 3 3 5
4 4 3 3 4 4 4 4 4 4 4 4 5 6 6 5 5 5 4 4 4 4 4 4 4 4 4 4 3 3 3 3 3 3 3 4 4 4 4 4 4 4 4 4 4 4 4 4 5
2 1 1 1 2 2 2 3 2 3 3 4 4 5 6 6 6 6 5 5 5 5 5 5 5 6 5 4 4 3 4 4 4 4 4 4 4 4 4 4 5 5 5 5 5 5 5 5 5
4 3 1 1 0 1 2 2 1 2 3 4 5 5 6 7 7 6 6 6 6 6 6 7 6 6 5 5 5 4 5 5 4 4 4 4 5 5 5 5 5 6 6 6 7 7 7 7 7
5 4 4 4 3 2 2 3 3 3 3 5 5 6 6 7 7 7 7 7 7 7 7 8 8 7 7 6 6 6 6 6 5 5 5 5 5 6 6 7 7 7 8 8 8 8 8 8 8
5 5 5 6 6 4 3 4 4 5 5 5 6 7 7 8 9 9 9 9 8 8 8 8 8 9 8 8 7 7 8 8 6 6 6 6 6 7 8 8 9 9 9 9 9 9 9 10 10
6 7 7 7 7 6 5 5 6 7 7 7 8 8 8 9 9 9 10 9 9 9 8 8 8 9 9 9 9 8 8 8 8 8 8 7 8 9 9 10 10 10 10 10 11 11 11 11 12
8 9 9 9 7 7 6 7 8 8 8 9 9 9 10 11 10 10 10 10 9 9 9 9 9 10 10 10 10 9 10 10 10 10 9 9 10 11 11 11 11 11 12 12 11 11 12 12 12
10 9 9 9 8 8 7 7 8 9 10 10 11 11 12 12 11 11 11 11 10 11 10 10 11 11 10 11 10 11 11 11 11 11 11 11 12 12 12 12 12 13 13 13 13 12 13 13 13
11 10 10 9 9 9 10 8 9 11 12 12 12 12 12 12 12 12 12 12 12 12 11 12 12 11 12 12 10 11 12 12 12 12 12 12 13 13 13 13 14 14 14 14 14 14 14 14 15
12 10 10 10 10 11 12 10 11 12 13 13 13 13 13 13 13 14 13 13 13 13 13 13 12 12 12 12 12 12 13 13 14 14 13 14 14 14 14 15 15 16 16 16 16 16 16 16 16
14 13 12 12 12 13 15 14 13 13 14 14 14 14 14 14 15 15 15 15 14 14 14 14 14 14 14 14 14 14 13 13 14 15 15 15 16 16 16 16 17 17 17 18 17 17 17 17 17
16 15 15 14 14 14 15 16 15 15 15 15 15 15 16 16 16 16 16 16 15 14 15 15 15 15 15 15 15 15 14 14 14 15 16 16 16 17 17 17 17 17 18 18 19 19 18 18 19
18 16 16 16 16 16 16 16 17 17 17 17 17 17 17 18 18 17 17 16 16 15 16 16 16 16 16 16 16 16 16 16 16 16 16 16 17 17 18 18 18 18 19 19 20 19 19 20 20
18 18 19 18 18 17 16 16 18 17 17 17 17 18 18 18 19 19 19 18 18 17 17 18 18 18 18 17 17 17 17 17 17 16 16 17 18 18 19 19 19 19 20 20 20 21 21 21 21
20 20 19 20 20 19 18 19 20 19 18 18 18 19 19 19 19 19 19 19 19 19 19 19 19 19 19 19 18 18 18 18 18 18 18 18 19 19 19 20 20 21 21 21 21 22 22 22 22
Wind_Direction
83 83 86 88 83 80 85 91 92 98 98 98 97 95 90 82 81 80 79 80 81 80 77 74 84 90 93 96 99 97 105 111 120 123 122 124 125 125 128 129 134 138 144 147 157 161 162 166 171
79 78 81 84 85 84 82 90 94 98 99 97 94 90 86 79 78 78 79 81 85 79 75 76 83 93 96 98 97 97 103 110 117 117 117 119 119 123 126 131 135 135 137 146 153 163 167 174 181
76 74 76 81 85 87 85 88 90 96 95 93 90 87 85 80 78 76 78 80 82 79 75 77 82 92 99 104 99 100 103 112 117 117 117 117 121 128 133 136 137 136 140 151 162 169 180 182 187
76 76 76 78 81 88 90 88 86 87 90 90 91 90 87 82 78 77 76 77 76 76 75 78 82 85 92 102 99 97 100 108 113 114 116 115 121 123 127 138 142 141 144 155 177 184 184 183 184
76 77 73 72 80 84 90 86 85 82 89 90 91 91 87 82 81 80 76 71 74 79 79 78 82 86 91 100 105 104 106 113 118 116 117 113 114 118 130 129 135 136 138 162 189 194 194 191 192
79 76 75 74 78 86 89 88 82 81 85 90 89 86 85 82 81 79 73 71 76 79 77 79 88 95 100 106 112 112 111 113 113 111 111 109 115 114 124 125 125 116 115 149 187 187 195 197 200
85 80 78 81 79 81 84 85 83 83 85 85 84 81 80 81 81 78 73 72 81 81 79 82 93 99 100 103 109 112 109 109 106 105 109 111 116 119 121 127 135 141 144 158 177 189 205 210 212
88 84 82 82 82 80 79 80 83 86 85 81 74 72 77 80 80 78 74 73 79 82 80 83 94 98 101 111 111 101 97 102 97 100 101 114 119 117 120 124 119 118 163 208 213 215 219 227 224
86 83 82 81 81 80 78 78 80 84 83 78 73 69 72 77 76 75 72 73 83 81 73 79 86 88 92 100 98 88 87 97 96 98 104 118 125 123 124 125 103 48 313 240 230 237 238 236 226
89 87 84 81 80 80 77 76 76 78 75 73 75 73 72 74 71 69 68 71 86 86 78 74 80 78 79 80 85 85 79 92 103 107 120 128 132 129 132 132 86 0 348 320 243 242 237 235 228
91 91 88 83 79 77 77 73 72 74 72 70 69 68 70 67 64 62 59 66 74 74 75 73 72 70 73 79 83 86 79 87 112 123 138 141 140 140 141 109 60 350 324 321 303 253 242 233 224
94 94 90 83 77 74 73 72 69 71 70 66 66 65 66 61 56 57 60 67 65 67 73 72 65 60 52 63 81 78 71 77 107 127 148 154 154 153 176 327 341 301 284 290 299 272 256 236 222
95 92 88 83 77 72 71 71 69 69 68 65 63 59 57 50 49 56 59 55 55 58 58 52 42 36 33 52 73 64 61 57 266 180 198 211 218 234 255 278 309 303 300 303 294 279 267 247 226
100 92 85 81 75 70 72 70 64 61 58 52 48 45 45 41 41 40 40 41 36 37 34 25 27 25 12 17 25 32 27 340 266 228 228 237 239 241 256 271 281 288 304 305 302 280 264 243 227
103 91 80 73 73 72 75 67 62 58 51 49 42 35 37 35 28 21 18 16 15 16 13 13 13 3 345 330 313 300 302 298 279 251 247 246 245 245 254 264 269 275 288 293 288 278 257 242 236
115 91 76 64 58 63 73 62 49 45 42 35 28 22 22 22 17 8 360 356 356 356 354 353 348 342 333 327 317 304 295 286 274 261 261 256 253 254 264 272 278 280 283 286 278 273 262 256 254
153 130 144 86 55 52 59 53 33 25 18 12 10 15 12 5 3 355 345 343 341 340 339 338 339 340 335 329 322 306 302 296 284 279 278 269 258 258 266 277 282 282 280 279 275 271 265 260 258
210 214 228 241 296 354 355 357 4 1 359 358 0 1 358 356 352 345 340 336 332 329 328 327 327 330 325 320 313 306 301 298 291 292 289 280 273 269 272 279 282 279 276 274 275 271 267 265 260
218 230 251 257 256 279 312 325 321 325 338 346 349 347 340 342 341 335 330 325 324 321 317 315 312 314 311 308 304 305 302 296 295 291 293 285 281 278 278 282 283 281 278 276 274 271 268 266 261
233 244 255 254 256 267 299 314 311 316 322 326 329 331 330 328 328 326 322 320 317 319 315 314 313 308 303 300 297 293 296 293 293 287 286 283 277 277 280 282 281 280 280 280 277 273 269 266 264
248 253 254 252 259 270 293 311 313 308 311 314 315 319 323 327 324 323 320 315 313 313 312 307 305 308 303 298 295 292 290 290 290 288 287 284 279 276 278 280 279 281 280 280 279 277 273 269 267
250 253 255 257 261 275 280 294 302 300 302 306 313 315 317 320 321 321 321 317 314 311 307 304 305 305 302 299 295 289 283 284 285 286 286 285 283 279 278 280 279 280 280 278 279 280 277 274 272
246 253 260 260 263 267 277 289 292 298 301 303 307 312 315 314 313 315 317 312 307 307 305 303 304 305 305 299 289 287 284 281 281 281 281 282 282 280 279 281 282 283 282 279 278 279 279 279 276
248 255 267 268 271 270 272 282 286 294 298 301 303 307 309 310 309 310 310 308 307 305 304 304 307 303 301 297 288 286 284 280 278 278 277 278 280 281 281 282 282 284 283 279 278 277 278 278 277
251 257 268 274 274 275 275 277 276 287 293 297 298 300 304 307 306 304 304 303 302 300 299 299 301 300 301 297 289 286 284 281 278 279 280 279 278 279 281 283 282 282 281 279 279 279 280 280 278
253 252 255 261 266 273 280 276 278 282 287 292 293 294 298 301 303 301 298 297 297 295 297 298 297 297 299 298 296 291 289 284 280 281 283 282 282 280 280 282 283 283 281 278 278 279 280 278 278
254 255 256 263 270 275 275 280 281 282 285 287 290 293 294 295 296 295 294 294 293 292 293 294 297 297 298 298 295 294 288 287 289 288 286 284 283 282 281 282 284 284 283 280 278 279 279 277 276
253 254 259 260 267 271 277 284 283 285 285 285 287 290 292 291 292 291 292 292 291 290 291 292 294 296 297 295 291 291 287 286 290 291 289 287 285 284 282 281 282 283 284 284 282 280 280 278 277
253 253 256 259 263 269 275 277 282 286 283 282 284 285 287 287 289 288 288 289 290 288 289 290 291 292 293 291 290 290 289 288 288 288 287 286 285 286 285 282 281 283 284 284 283 281 280 282 281
254 257 260 263 267 270 272 276 281 284 283 284 285 286 286 287 286 285 285 285 286 286 286 288 290 290 291 289 288 288 288 288 286 285 286 285 284 284 283 284 284 284 284 284 282 281 280 282 281
Height
5893 5893 5893 5894 5894 5895 5894 5893 5892 5891 5891 5890 5890 5889 5888 5889 5889 5891 5888 5886 5885 5884 5883 5882 5882 5882 5881 5880 5879 5878 5877 5877 5877 5878 5879 5880 5881 5881 5882 5882 5883 5883 5883 5884 5885 5886 5886 5887 5888
5895 5894 5895 5895 5896 5896 5895 5894 5893 5892 5892 5891 5890 5890 5889 5889 5889 5888 5887 5887 5886 5885 5884 5883 5883 5882 5882 5882 5881 5881 5880 5879 5879 5880 5880 5881 5881 5882 5882 5883 5883 5883 5884 5884 5885 5886 5886 5887 5887
5896 5896 5897 5897 5897 5896 5896 5895 5894 5893 5892 5892 5891 5891 5891 5890 5889 5889 5888 5887 5887 5886 5885 5884 5884 5883 5883 5883 5883 5882 5882 5881 5881 5881 5881 5882 5882 5882 5883 5883 5883 5884 5884 5885 5885 5886 5886 5886 5887
5897 5898 5898 5899 5897 5897 5896 5896 5895 5894 5893 5892 5892 5892 5891 5891 5890 5890 5889 5888 5887 5887 5886 5885 5885 5884 5884 5883 5883 5883 5883 5882 5882 5882 5882 5882 5883 5883 5883 5883 5884 5884 5885 5885 5886 5886 5886 5886 5886
5899 5899 5900 5900 5899 5898 5897 5896 5896 5895 5894 5894 5893 5893 5892 5892 5891 5891 5890 5889 5888 5888 5887 5886 5886 5885 5885 5885 5885 5884 5884 5883 5883 5883 5883 5883 5883 5883 5883 5884 5884 5885 5885 5885 5885 5886 5886 5886 5886
5901 5901 5902 5901 5900 5899 5898 5897 5897 5897 5896 5895 5895 5894 5893 5893 5892 5892 5891 5890 5889 5889 5888 5887 5886 5886 5886 5885 5885 5884 5884 5884 5884 5884 5884 5884 5884 5884 5884 5884 5885 5885 5885 5885 5885 5885 5885 5885 5886
5903 5903 5903 5902 5901 5900 5900 5899 5898 5898 5897 5897 5896 5895 5894 5894 5893 5892 5892 5891 5890 5889 5888 5887 5887 5887 5886 5886 5885 5885 5885 5885 5884 5884 5884 5885 5885 5885 5885 5885 5885 5885 5885 5885 5885 5885 5885 5885 5885
5904 5906 5905 5904 5903 5902 5901 5900 5899 5899 5898 5898 5897 5896 5896 5895 5894 5893 5893 5892 5891 5890 5889 5889 5888 5887 5887 5887 5886 5885 5885 5885 5885 5885 5885 5885 5885 5885 5885 5885 5885 5885 5884 5884 5884 5884 5884 5884 5884
5906 5909 5907 5906 5904 5904 5903 5901 5901 5900 5899 5899 5898 5897 5897 5896 5895 5894 5894 5893 5892 5891 5891 5890 5889 5888 5888 5887 5887 5886 5885 5885 5885 5885 5885 5885 5885 5885 5885 5885 5885 5884 5884 5883 5883 5883 5883 5883 5883
5908 5909 5908 5907 5906 5905 5904 5903 5902 5901 5900 5900 5899 5898 5897 5897 5896 5895 5894 5894 5893 5892 5892 5891 5890 5890 5889 5888 5887 5886 5886 5886 5886 5885 5885 5885 5885 5885 5885 5885 5885 5884 5883 5882 5882 5882 5882 5882 5882
5909 5910 5909 5908 5907 5906 5906 5905 5904 5902 5902 5901 5900 5899 5898 5898 5897 5896 5895 5895 5894 5893 5893 5892 5891 5890 5890 5888 5887 5887 5886 5886 5886 5885 5885 5885 5885 5885 5885 5885 5884 5884 5883 5882 5881 5880 5880 5881 5881
5910 5910 5910 5909 5909 5908 5907 5906 5905 5904 5904 5903 5902 5901 5900 5899 5898 5897 5896 5896 5895 5895 5894 5893 5892 5891 5890 5889 5888 5887 5886 5886 5886 5885 5885 5885 5885 5885 5885 5885 5884 5883 5883 5882 5881 5880 5879 5879 5880
5912 5912 5911 5911 5910 5909 5909 5908 5907 5906 5905 5904 5903 5902 5901 5900 5899 5898 5898 5897 5896 5895 5895 5894 5893 5892 5891 5890 5889 5888 5887 5886 5886 5885 5885 5885 5885 5885 5885 5884 5884 5883 5882 5882 5881 5880 5879 5878 5878
5913 5913 5912 5912 5911 5910 5910 5909 5908 5907 5906 5905 5904 5903 5902 5901 5901 5900 5899 5898 5897 5896 5895 5894 5893 5892 5891 5890 5889 5888 5887 5886 5886 5885 5885 5884 5884 5884 5884 5884 5883 5882 5881 5881 5880 5879 5878 5877 5877
5914 5914 5914 5913 5912 5911 5911 5910 5909 5908 5908 5907 5906 5905 5903 5902 5901 5900 5899 5898 5897 5896 5896 5894 5893 5892 5891 5890 5888 5887 5887 5886 5885 5884 5884 5883 5883 5883 5883 5883 5882 5881 5881 5880 5879 5878 5878 5877 5877
5914 5915 5915 5914 5913 5912 5913 5912 5911 5909 5908 5907 5906 5905 5904 5903 5902 5901 5900 5899 5897 5896 5895 5894 5893 5892 5890 5889 5888 5887 5886 5885 5884 5883 5882 5882 5882 5882 5881 5881 5881 5880 5880 5879 5879 5878 5878 5877 5877
5915 5916 5916 5915 5914 5913 5913 5912 5911 5910 5909 5908 5907 5905 5904 5903 5902 5901 5899 5898 5897 5896 5895 5894 5892 5891 5889 5888 5887 5886 5885 5884 5883 5882 5881 5881 5881 5881 5880 5880 5880 5879 5879 5878 5878 5877 5877 5877 5876
5916 5915 5915 5915 5914 5913 5912 5912 5911 5910 5909 5908 5907 5905 5904 5903 5902 5900 5899 5898 5897 5896 5894 5893 5892 5890 5889 5887 5886 5885 5884 5883 5882 5881 5881 5880 5879 5879 5879 5879 5878 5878 5877 5877 5876 5876 5876 5875 5875
5914 5914 5914 5914 5913 5913 5912 5911 5911 5910 5909 5908 5907 5905 5904 5903 5902 5900 5899 5897 5896 5895 5894 5892 5891 5889 5888 5886 5885 5884 5883 5882 5881 5880 5879 5879 5878 5878 5877 5877 5877 5876 5876 5875 5875 5874 5874 5874 5873
5912 5913 5913 5913 5912 5912 5912 5911 5910 5909 5908 5907 5906 5905 5903 5902 5901 5899 5898 5896 5895 5893 5892 5891 5889 5888 5886 5885 5884 5883 5882 5880 5880 5879 5878 5877 5877 5876 5876 5875 5875 5874 5874 5873 5873 5872 5872 5872 5871
5910 5911 5911 5911 5911 5911 5911 5911 5910 5909 5908 5906 5905 5904 5903 5901 5900 5898 5896 5895 5893 5892 5890 5889 5887 5886 5884 5883 5882 5881 5880 5879 5878 5877 5876 5876 5875 5875 5874 5874 5873 5872 5872 5871 5870 5870 5870 5869 5869
5909 5909 5909 5909 5909 5910 5910 5911 5909 5907 5906 5905 5904 5902 5901 5900 5898 5896 5895 5893 5891 5890 5888 5887 5885 5884 5882 5881 5880 5879 5878 5877 5876 5875 5875 5874 5873 5873 5872 5872 5871 5870 5869 5868 5867 5867 5867 5866 5866
5906 5906 5906 5906 5907 5908 5908 5908 5909 5906 5905 5903 5902 5900 5899 5897 5896 5894 5893 5891 5890 5888 5886 5885 5884 5882 5881 5879 5878 5877 5876 5875 5874 5873 5872 5871 5871 5870 5869 5869 5868 5867 5866 5865 5864 5864 5863 5863 5863
5903 5904 5904 5904 5905 5906 5906 5906 5906 5904 5902 5901 5900 5898 5897 5895 5894 5892 5890 5889 5887 5886 5884 5883 5881 5880 5878 5876 5875 5874 5873 5872 5871 5870 5869 5868 5868 5867 5866 5865 5865 5864 5863 5862 5861 5860 5860 5859 5859
5901 5902 5904 5904 5904 5905 5903 5902 5903 5900 5899 5898 5897 5895 5894 5893 5891 5889 5888 5886 5885 5883 5882 5880 5879 5877 5875 5873 5872 5871 5869 5869 5868 5867 5866 5865 5864 5863 5863 5862 5861 5860 5859 5858 5857 5856 5856 5855 5855
5898 5900 5902 5902 5903 5903 5899 5899 5899 5897 5895 5894 5893 5892 5891 5889 5888 5886 5885 5883 5882 5880 5879 5877 5876 5874 5872 5871 5869 5868 5866 5865 5864 5863 5862 5861 5860 5859 5859 5858 5857 5856 5854 5853 5853 5852 5851 5851 5850
5894 5895 5897 5898 5897 5898 5897 5895 5894 5893 5892 5891 5890 5888 5887 5886 5884 5883 5881 5880 5878 5877 5875 5874 5872 5871 5869 5867 5866 5865 5863 5862 5860 5859 5858 5857 5856 5855 5854 5853 5852 5851 5850 5849 5848 5847 5847 5846 5845
5890 5891 5892 5893 5893 5893 5894 5892 5891 5889 5888 5887 5886 5884 5883 5882 5880 5879 5877 5876 5874 5873 5872 5870 5868 5867 5865 5863 5862 5861 5859 5858 5857 5856 5854 5853 5852 5851 5850 5848 5848 5846 5845 5844 5843 5842 5841 5841 5840
5885 5886 5886 5887 5888 5889 5890 5891 5886 5884 5883 5882 5881 5880 5878 5877 5876 5874 5873 5871 5870 5869 5867 5866 5864 5862 5861 5859 5857 5856 5855 5854 5853 5851 5850 5849 5847 5846 5845 5844 5842 5841 5840 5839 5838 5837 5836 5835 5835
5879 5880 5881 5883 5882 5882 5883 5886 5880 5879 5878 5877 5876 5874 5873 5872 5871 5870 5868 5867 5865 5864 5862 5861 5859 5858 5856 5854 5853 5851 5850 5849 5848 5847 5846 5844 5843 5842 5840 5838 5837 5836 5835 5833 5832 5831 5830 5830 5829